Location: Bay Shore Mobile Home Park
(38.5762°N, 75.0841°W)
Time: 19:48:34
(UTC+00:00)

ISS - Pass Details

Date: 25 January 2026
Orbit: 414 x 429 km, 51.6° (Epoch: 6 February)

Event Time Altitude Azimuth Distance (km) Brightness Sun altitude
Rises 23:58:24 0° 315° (NW) 2,367 0.6 -20.3°
Reaches altitude 10° 00:00:40 10° 327° (NNW) 1,504 -0.6 -20.7°
Enters shadow 00:02:16 21° 347° (NNW) 992 -1.9 -21.0°
